Location: ?????????
(54.7630°N, 39.4991°E)
Time: 14:43:36
(UTC+00:00)

Cosmos 1603 - Pass Details

Date: 14 April 2026
Orbit: 828 x 860 km, 71.0° (Epoch: 17 May)

Event Time Altitude Azimuth Distance (km) Brightness Sun altitude
Exits shadow 22:23:31 41° 257° (WSW) 1,204 4.2 -24.3°
Maximum altitude 22:25:11 57° 310° (NW) 996 4.1 -24.2°
Drops below altitude 10° 22:30:49 10° 29° (NNE) 2,486 7.2 -24.0°
Sets 22:33:20 0° 34° (NE) 3,430 8.1 -23.8°
